This demonstration page uses our WeatherBlox Daily Observations layout. Learn more.

Left ArrowRight Arrow

Hourly Observations for October 2, 2016

Temp ( °F °C ) Dew Point ( °F °C ) Humidity (%) Winds ( mph kmh ) Pressure ( in mb ) Visibility ( mi km ) Precip ( " mm )
12:51 am 00:51 Clear 61 16.1 50 10 67 67 E 3 6 29.93 1014 10 16 0.00 0.00
1:51 am 01:51 Clear 59 15 51 10.6 75 75 SSE 5 7 29.93 1013 10 16 0.00 0.00
2:51 am 02:51 Clear 59 15 49 9.4 69 69 SE 3 6 29.91 1013 10 16 0.00 0.00
3:51 am 03:51 Clear 57 13.9 49 9.4 74 74 SSE 7 11 29.91 1013 10 16 0.00 0.00
4:51 am 04:51 Clear 54 12.2 49 9.4 83 83 Calm 29.93 1014 10 16 0.00 0.00
5:51 am 05:51 Clear 54 12.2 49 9.4 83 83 Calm 29.95 1014 10 16 0.00 0.00
6:51 am 06:51 Sunny 57 13.9 49 9.4 74 74 ESE 3 6 29.98 1015 10 16 0.00 0.00
7:51 am 07:51 Sunny 64 17.8 49 9.4 58 58 SE 5 7 29.97 1015 10 16 0.00 0.00
8:51 am 08:51 Sunny 74 23.3 46 7.8 37 37 SE 14 22 29.96 1015 10 16 0.00 0.00
9:51 am 09:51 Mostly Sunny 76 24.4 47 8.3 36 36 SE 7 11 29.95 1014 10 16 0.00 0.00
10:51 am 10:51 Sunny 80 26.7 46 7.8 30 30 SSE 7 11 29.93 1014 10 16 0.00 0.00
11:51 am 11:51 Sunny 84 28.9 45 7.2 25 25 ESE 3 6 29.91 1013 10 16 0.00 0.00
12:51 pm 12:51 Partly Cloudy 85 29.4 43 6.1 23 23 S 10 17 29.88 1012 10 16 0.00 0.00
1:51 pm 13:51 Mostly Cloudy 86 30 43 6.1 22 22 S 8 13 29.85 1011 10 16 0.00 0.00
2:51 pm 14:51 Cloudy 82 27.8 48 8.9 31 31 WSW 13 20 29.85 1011 10 16 0.00 0.00
3:51 pm 15:51 Cloudy 85 29.4 49 9.4 29 29 Calm 29.83 1010 10 16 0.00 0.00
4:51 pm 16:51 Cloudy 81 27.2 49 9.4 33 33 NNW 3 6 29.83 1010 10 16 0.00 0.00
5:51 pm 17:51 Cloudy 75 23.9 56 13.3 52 52 NNW 13 20 29.85 1011 10 16 0.00 0.00
6:51 pm 18:51 Cloudy 74 23.3 58 14.4 57 57 NNW 9 15 29.84 1010 10 16 0.00 0.03
7:51 pm 19:51 Cloudy 71 21.7 59 15 66 66 W 10 17 29.83 1010 10 16 0.00 0.00
8:51 pm 20:51 Cloudy 68 20 59 15 73 73 WNW 13 20 29.83 1010 10 16 0.00 0.00
9:51 pm 21:51 Cloudy 69 20.6 59 15 70 70 SSE 10 17 29.86 1011 10 16 0.00 0.00
10:51 pm 22:51 Mostly Cloudy 69 20.6 60 15.6 73 73 E 8 13 29.82 1010 10 16 0.00 0.00
11:51 pm 23:51 Clear 69 20.6 58 14.4 68 68 ENE 9 15 29.80 1009 10 16 0.00 0.00

Powered by AerisWeather